Weather History for KCWV - September, 2012

Change the Weather History Date:

Saturday, September 8, 2012

  Actual Average (KSAV) Record (KSAV)
Temperature  
Mean Temperature 81 °F 79 °F  
Max Temperature 89 °F 88 °F 99 °F (1925)
Min Temperature 73 °F 70 °F 58 °F (2011)
Degree Days  
Heating Degree Days 0 0  
Month to date heating degree days 0  
Since 1 July heating degree days 0  
Cooling Degree Days 16 14  
Month to date cooling degree days 115  
Year to date cooling degree days 2022  
Growing Degree Days 31 (Base 50)    
Moisture  
Dew Point 76 °F    
Average Humidity 91    
Maximum Humidity 100    
Minimum Humidity 59    
Precipitation  
Precipitation 0.00 in 0.18 in 1.74 in (1934)
Month to date precipitation 1.42  
Year to date precipitation 35.79  
Sea Level Pressure  
Sea Level Pressure 29.85 in    
Wind  
Wind Speed 2 mph (SW)    
Max Wind Speed 17 mph    
Max Gust Speed 25 mph    
Visibility 10 miles    
Events Rain , Thunderstorm    
T = Trace of Precipitation, MM = Missing Value Source: NWS Daily Summary

Daily Weather History Graph

Daily Weather History Graph

Search for Another Location

Airport or City:

Trip Planner

Search our weather history database for the weather conditions in past years. The results will help you decide how hot, cold, wet, or windy it might be!

Date:

Astronomy

Sep. 08, 2012 Rise Set
Actual Time 7:07 AM EDT 7:42 PM EDT
Civil Twilight 6:42 AM EDT 8:06 PM EDT
Nautical Twilight 6:13 AM EDT 8:35 PM EDT
Astronomical Twilight 5:43 AM EDT 9:05 PM EDT
Moon 12:03 AM EDT (9/8) 2:22 PM EDT (9/8)
Length of Visible Light 13h 24m
Length of Day
12h 34m
Waning Gibbous, 49% of the Moon is Illuminated
Sep 8
Waning Gibbous
Sep 15
New
Sep 22
First Quarter
Sep 29
Full
Oct 8
Last Quarter

Hourly Weather History & Observations

Time (EDT) Temp. Heat Index Dew Point Humidity Pressure Visibility Wind Dir Wind Speed Gust Speed Precip Events Conditions
12:35 AM 73.4 °F - 73.4 °F 100% 29.87 in 10.0 mi Calm Calm - N/A   Clear
1:15 AM 73.4 °F - 73.4 °F 100% 29.87 in 10.0 mi Calm Calm - N/A   Clear
1:35 AM 75.2 °F - 75.2 °F 100% 29.87 in 10.0 mi Calm Calm - N/A   Clear
2:15 AM 73.4 °F - 73.4 °F 100% 29.88 in 10.0 mi Calm Calm - N/A   Clear
2:35 AM 73.4 °F - 73.4 °F 100% 29.89 in 10.0 mi Calm Calm - N/A   Clear
3:15 AM 75.2 °F - 75.2 °F 100% 29.88 in 10.0 mi Calm Calm - N/A   Scattered Clouds
3:35 AM 77.0 °F - 75.2 °F 94% 29.88 in 10.0 mi WSW 4.6 mph - N/A   Clear
3:55 AM 77.0 °F - 75.2 °F 94% 29.88 in 10.0 mi Calm Calm - N/A   Clear
4:15 AM 77.0 °F - 75.2 °F 94% 29.88 in 10.0 mi Calm Calm - N/A   Scattered Clouds
4:35 AM 75.2 °F - 75.2 °F 100% 29.88 in 10.0 mi Calm Calm - N/A   Scattered Clouds
4:55 AM 75.2 °F - 75.2 °F 100% 29.87 in 10.0 mi Calm Calm - N/A   Clear
5:15 AM 75.2 °F - 75.2 °F 100% 29.87 in 10.0 mi Calm Calm - N/A   Clear
5:35 AM 75.2 °F - 75.2 °F 100% 29.87 in 10.0 mi Calm Calm - N/A   Clear
5:55 AM 75.2 °F - 75.2 °F 100% 29.87 in 10.0 mi WSW 3.5 mph - N/A   Clear
6:15 AM 77.0 °F - 77.0 °F 100% 29.86 in 10.0 mi WSW 4.6 mph - N/A   Clear
6:35 AM 77.0 °F - 77.0 °F 100% 29.87 in 10.0 mi WSW 4.6 mph - N/A   Clear
6:55 AM 77.0 °F - 77.0 °F 100% 29.87 in 10.0 mi West 3.5 mph - N/A   Clear
7:15 AM 77.0 °F - 77.0 °F 100% 29.87 in 10.0 mi Calm Calm - N/A   Clear
7:35 AM 77.0 °F - 77.0 °F 100% 29.88 in 10.0 mi Calm Calm - N/A   Clear
7:55 AM 77.0 °F - 77.0 °F 100% 29.88 in 10.0 mi Calm Calm - N/A   Clear
8:15 AM 77.0 °F - 77.0 °F 100% 29.88 in 10.0 mi Calm Calm - N/A   Clear
8:35 AM 78.8 °F - 77.0 °F 94% 29.89 in 10.0 mi WSW 3.5 mph - N/A   Clear
8:55 AM 78.8 °F - 77.0 °F 94% 29.89 in 10.0 mi Calm Calm - N/A   Scattered Clouds
9:15 AM 78.8 °F - 77.0 °F 94% 29.90 in 10.0 mi SW 3.5 mph - N/A   Mostly Cloudy
9:35 AM 78.8 °F - 77.0 °F 94% 29.90 in 10.0 mi Calm Calm - N/A   Mostly Cloudy
9:55 AM 80.6 °F 87.1 °F 77.0 °F 89% 29.90 in 10.0 mi Calm Calm - N/A   Mostly Cloudy
10:15 AM 82.4 °F 90.9 °F 77.0 °F 84% 29.89 in 10.0 mi SW 5.8 mph - N/A   Scattered Clouds
10:35 AM 82.4 °F 89.5 °F 75.2 °F 79% 29.90 in 10.0 mi WSW 5.8 mph - N/A   Clear
11:15 AM 84.2 °F 92.3 °F 75.2 °F 74% 29.90 in 10.0 mi West 5.8 mph - N/A   Scattered Clouds
11:35 AM 86.0 °F 95.1 °F 75.2 °F 70% 29.89 in 10.0 mi SW 5.8 mph - N/A   Scattered Clouds
11:55 AM 86.0 °F 93.4 °F 73.4 °F 66% 29.89 in 10.0 mi West 6.9 mph - N/A   Scattered Clouds
12:15 PM 87.8 °F 95.6 °F 73.4 °F 62% 29.88 in 10.0 mi WSW 4.6 mph - N/A   Scattered Clouds
12:35 PM 82.4 °F 89.5 °F 75.2 °F 79% 29.87 in 10.0 mi WNW 9.2 mph 16.1 mph N/A Rain Light Rain
1:15 PM 87.8 °F 97.6 °F 75.2 °F 66% 29.85 in 10.0 mi West 4.6 mph - N/A   Clear
1:35 PM 87.8 °F 95.6 °F 73.4 °F 62% 29.84 in 10.0 mi SW 5.8 mph 16.1 mph N/A   Clear
1:55 PM 87.8 °F 95.6 °F 73.4 °F 62% 29.84 in 10.0 mi West 8.1 mph - N/A   Scattered Clouds
2:15 PM 87.8 °F 97.6 °F 75.2 °F 66% 29.82 in 10.0 mi WNW 4.6 mph - N/A   Mostly Cloudy
2:35 PM 89.6 °F 98.2 °F 73.4 °F 59% 29.82 in 10.0 mi SSE 3.5 mph - N/A   Mostly Cloudy
2:55 PM 87.8 °F 95.6 °F 73.4 °F 62% 29.81 in 10.0 mi South 6.9 mph - N/A   Scattered Clouds
3:15 PM 86.0 °F 93.4 °F 73.4 °F 66% 29.82 in 10.0 mi SW 17.3 mph 25.3 mph N/A   Mostly Cloudy
3:35 PM 77.0 °F - 73.4 °F 89% 29.82 in 10.0 mi SSW 3.5 mph - N/A Rain Light Rain
4:15 PM 77.0 °F - 75.2 °F 94% 29.81 in 10.0 mi Calm Calm - N/A Rain Rain
4:35 PM 78.8 °F - 77.0 °F 94% 29.80 in 10.0 mi Calm Calm - N/A   Scattered Clouds
4:55 PM 78.8 °F - 77.0 °F 94% 29.81 in 10.0 mi Calm Calm - N/A Thunderstorm Scattered Clouds
5:15 PM 78.8 °F - 77.0 °F 94% 29.80 in 3.0 mi South 3.5 mph - N/A Rain , Thunderstorm Rain
5:35 PM 78.8 °F - 77.0 °F 94% 29.80 in 7.0 mi Calm Calm - N/A Thunderstorm Thunderstorm
5:55 PM 78.8 °F - 77.0 °F 94% 29.80 in 10.0 mi SE 3.5 mph - N/A Thunderstorm Overcast
6:15 PM 78.8 °F - 77.0 °F 94% 29.82 in 10.0 mi Calm Calm - N/A Thunderstorm Overcast
6:35 PM 78.8 °F - 77.0 °F 94% 29.81 in 10.0 mi South 3.5 mph - N/A   Mostly Cloudy
6:55 PM 78.8 °F - 77.0 °F 94% 29.80 in 10.0 mi SSE 3.5 mph - N/A   Mostly Cloudy
7:15 PM 78.8 °F - 77.0 °F 94% 29.80 in 10.0 mi South 3.5 mph - N/A   Scattered Clouds
7:35 PM 78.8 °F - 77.0 °F 94% 29.80 in 10.0 mi Calm Calm - N/A   Scattered Clouds
7:55 PM 78.8 °F - 77.0 °F 94% 29.82 in 10.0 mi South 3.5 mph - N/A   Mostly Cloudy
8:15 PM 78.8 °F - 77.0 °F 94% 29.82 in 10.0 mi Calm Calm - N/A   Mostly Cloudy
8:35 PM 77.0 °F - 77.0 °F 100% 29.81 in 10.0 mi Calm Calm - N/A   Scattered Clouds
8:55 PM 77.0 °F - 77.0 °F 100% 29.82 in 10.0 mi Calm Calm - N/A   Mostly Cloudy
9:15 PM 77.0 °F - 77.0 °F 100% 29.84 in 10.0 mi WSW 3.5 mph - N/A   Overcast
9:35 PM 77.0 °F - 77.0 °F 100% 29.83 in 10.0 mi South 3.5 mph - N/A   Overcast
9:55 PM 77.0 °F - 77.0 °F 100% 29.84 in 10.0 mi Calm Calm - N/A   Overcast
10:15 PM 77.0 °F - 77.0 °F 100% 29.84 in 10.0 mi Calm Calm - N/A   Overcast
10:35 PM 77.0 °F - 77.0 °F 100% 29.84 in 10.0 mi SSW 4.6 mph - N/A   Overcast
11:15 PM 77.0 °F - 77.0 °F 100% 29.84 in 5.0 mi WSW 5.8 mph - N/A Rain Heavy Rain
11:35 PM 73.4 °F - 73.4 °F 100% 29.82 in 4.0 mi South 5.8 mph - N/A Rain Heavy Rain